�������l�o���
Date,Time,MP-1(��Sv/h),MP-2(��Sv/h),MP-3(��Sv/h),MP-4(��Sv/h),MP-5(��Sv/h),MP-6(��Sv/h),MP-7(��Sv/h),MP-8(��Sv/h),����,����(m/s),���J
2018/09/13,00:00,0.785,1.180,0.827,1.468,1.064,0.463,0.807,0.766,�쐼,2.9,��
2018/09/13,00:10,0.787,1.180,0.829,1.469,1.065,0.462,0.807,0.766,�쐼,3.2,��
2018/09/13,00:20,0.787,1.180,0.829,1.469,1.063,0.463,0.807,0.767,�쐼,2.9,��
2018/09/13,00:30,0.787,1.177,0.828,1.470,1.064,0.462,0.806,0.766,�쐼,3.0,��
2018/09/13,00:40,0.785,1.180,0.827,1.470,1.063,0.463,0.810,0.765,�쐼,2.6,��
2018/09/13,00:50,0.787,1.180,0.830,1.470,1.063,0.463,0.808,0.766,�쐼,2.9,��
2018/09/13,01:00,0.787,1.179,0.828,1.467,1.065,0.461,0.807,0.765,�쐼,3.1,��
2018/09/13,01:10,0.785,1.181,0.827,1.468,1.063,0.465,0.809,0.767,�쐼,2.3,��
2018/09/13,01:20,0.786,1.179,0.828,1.468,1.060,0.462,0.808,0.765,�쐼,2.5,��
2018/09/13,01:30,0.785,1.177,0.829,1.469,1.064,0.462,0.807,0.767,�쐼,2.5,��
2018/09/13,01:40,0.786,1.183,0.831,1.470,1.064,0.462,0.809,0.765,��쐼,1.7,��
2018/09/13,01:50,0.788,1.176,0.828,1.468,1.063,0.462,0.808,0.765,��쐼,1.2,��
2018/09/13,02:00,0.787,1.181,0.830,1.470,1.063,0.462,0.808,0.767,��쐼,1.5,��
2018/09/13,02:10,0.787,1.180,0.829,1.470,1.065,0.462,0.808,0.766,��,1.5,��
2018/09/13,02:20,0.787,1.177,0.827,1.470,1.064,0.462,0.809,0.767,��쐼,2.2,��
2018/09/13,02:30,0.785,1.180,0.830,1.469,1.063,0.462,0.809,0.766,��쐼,2.0,��
2018/09/13,02:40,0.786,1.178,0.828,1.470,1.065,0.460,0.809,0.766,��쐼,1.9,��
2018/09/13,02:50,0.786,1.181,0.829,1.469,1.064,0.463,0.808,0.766,�쐼,1.7,��
2018/09/13,03:00,0.785,1.180,0.828,1.469,1.064,0.461,0.808,0.767,�쐼,2.0,��
2018/09/13,03:10,0.787,1.179,0.827,1.468,1.063,0.463,0.807,0.766,�쐼,1.5,��
2018/09/13,03:20,0.783,1.178,0.828,1.469,1.064,0.463,0.808,0.766,��쐼,2.0,��
2018/09/13,03:30,0.784,1.177,0.829,1.470,1.064,0.461,0.808,0.767,��쐼,2.2,��
2018/09/13,03:40,0.785,1.181,0.828,1.468,1.065,0.462,0.806,0.766,�쐼,2.0,��
2018/09/13,03:50,0.786,1.179,0.829,1.470,1.063,0.461,0.809,0.766,�쐼,1.9,��
2018/09/13,04:00,0.787,1.181,0.829,1.469,1.063,0.461,0.809,0.766,�쐼,1.7,��
2018/09/13,04:10,0.786,1.181,0.827,1.469,1.061,0.462,0.809,0.768,�쐼,1.4,��
2018/09/13,04:20,0.787,1.181,0.828,1.466,1.063,0.463,0.808,0.766,���쐼,0.9,��
2018/09/13,04:30,0.787,1.177,0.828,1.468,1.064,0.462,0.808,0.766,�쐼,0.8,��
2018/09/13,04:40,0.785,1.181,0.828,1.470,1.063,0.463,0.807,0.767,��쐼,0.9,��
2018/09/13,04:50,0.788,1.179,0.828,1.469,1.062,0.463,0.809,0.766,��,1.5,��
2018/09/13,05:00,0.786,1.178,0.828,1.471,1.065,0.463,0.807,0.766,��쐼,1.2,��
2018/09/13,05:10,0.786,1.181,0.827,1.469,1.063,0.462,0.807,0.766,��,1.1,��
2018/09/13,05:20,0.786,1.179,0.827,1.469,1.063,0.462,0.808,0.768,��,1.1,��
2018/09/13,05:30,0.786,1.181,0.828,1.471,1.063,0.463,0.810,0.767,�쐼,0.9,��
2018/09/13,05:40,0.786,1.178,0.828,1.469,1.064,0.463,0.806,0.767,�쐼,0.6,��
2018/09/13,05:50,0.787,1.180,0.831,1.468,1.065,0.462,0.808,0.765,���k��,0.9,��
2018/09/13,06:00,0.787,1.182,0.827,1.472,1.066,0.462,0.808,0.766,���k��,1.1,��
2018/09/13,06:10,0.787,1.181,0.828,1.470,1.067,0.462,0.808,0.766,�k��,0.8,��
2018/09/13,06:20,0.787,1.181,0.829,1.470,1.065,0.460,0.808,0.768,-,CALM,��
2018/09/13,06:30,0.790,1.182,0.830,1.471,1.064,0.462,0.808,0.767,-,CALM,��
2018/09/13,06:40,0.786,1.183,0.828,1.468,1.067,0.464,0.807,0.767,�쐼,0.9,��
2018/09/13,06:50,0.789,1.179,0.829,1.469,1.065,0.463,0.808,0.768,�쐼,0.6,��
2018/09/13,07:00,0.787,1.179,0.827,1.471,1.063,0.464,0.809,0.767,�쐼,1.7,��
2018/09/13,07:10,0.787,1.180,0.829,1.473,1.063,0.462,0.806,0.767,�쐼,1.2,��
2018/09/13,07:20,0.788,1.179,0.830,1.469,1.063,0.462,0.809,0.768,-,CALM,��
2018/09/13,07:30,0.787,1.177,0.829,1.472,1.065,0.461,0.809,0.769,��,1.2,��
2018/09/13,07:40,0.788,1.176,0.829,1.469,1.062,0.461,0.808,0.766,��,1.4,��
2018/09/13,07:50,0.788,1.177,0.830,1.471,1.065,0.462,0.808,0.766,��쐼,1.5,��
2018/09/13,08:00,0.787,1.178,0.830,1.472,1.065,0.459,0.808,0.765,��,0.9,��
2018/09/13,08:10,0.787,1.179,0.831,1.468,1.062,0.461,0.808,0.766,��쓌,1.4,��
2018/09/13,08:20,0.788,1.178,0.829,1.465,1.063,0.462,0.809,0.765,��쓌,2.3,�L
2018/09/13,08:30,0.787,1.177,0.826,1.472,1.068,0.461,0.808,0.766,��쓌,2.0,�L
2018/09/13,08:40,0.786,1.179,0.827,1.469,1.065,0.463,0.808,0.764,�쓌,1.7,�L
2018/09/13,08:50,0.786,1.178,0.827,1.469,1.063,0.462,0.806,0.765,�쓌,1.5,��
2018/09/13,09:00,0.785,1.177,0.826,1.469,1.062,0.462,0.810,0.764,���쓌,1.5,��
2018/09/13,09:10,0.787,1.176,0.826,1.471,1.065,0.461,0.808,0.765,�쓌,2.0,��
2018/09/13,09:20,0.783,1.178,0.827,1.469,1.064,0.463,0.809,0.764,��쓌,3.1,��
2018/09/13,09:30,0.788,1.174,0.829,1.468,1.063,0.462,0.807,0.765,�쓌,2.6,��
2018/09/13,09:40,0.785,1.173,0.827,1.471,1.065,0.461,0.807,0.763,��쓌,3.7,��
2018/09/13,09:50,0.787,1.173,0.829,1.472,1.066,0.463,0.807,0.765,��쓌,4.8,�L
2018/09/13,10:00,0.785,1.176,0.827,1.473,1.065,0.462,0.806,0.765,��쓌,3.3,�L
2018/09/13,10:10,0.787,1.173,0.828,1.472,1.065,0.462,0.807,0.765,��쓌,3.5,�L
2018/09/13,10:20,0.785,1.176,0.826,1.471,1.065,0.462,0.806,0.766,��쓌,2.6,��
2018/09/13,10:30,0.785,1.174,0.828,1.471,1.064,0.462,0.810,0.763,��쓌,3.0,��
2018/09/13,10:40,0.788,1.178,0.827,1.472,1.065,0.463,0.808,0.765,�쓌,2.0,��
2018/09/13,10:50,0.787,1.177,0.828,1.472,1.065,0.463,0.808,0.766,���쓌,2.8,��
2018/09/13,11:00,0.786,1.178,0.828,1.466,1.065,0.463,0.809,0.765,�쓌,3.4,��
2018/09/13,11:10,0.789,1.181,0.829,1.468,1.067,0.464,0.810,0.765,-,-,��
2018/09/13,11:20,0.788,1.183,0.827,1.470,1.067,0.464,0.809,0.766,-,-,��
2018/09/13,11:30,0.788,1.183,0.830,1.469,1.068,0.463,0.809,0.764,-,-,��
2018/09/13,11:40,0.788,1.183,0.828,1.470,1.067,0.462,0.810,0.765,-,-,��
2018/09/13,11:50,0.787,1.184,0.830,1.471,1.069,0.463,0.809,0.767,-,-,��
2018/09/13,12:00,0.787,1.183,0.829,1.469,1.068,0.464,0.810,0.765,-,-,��
2018/09/13,12:10,0.790,1.184,0.828,1.470,1.067,0.463,0.810,0.765,-,-,��
2018/09/13,12:20,0.789,1.184,0.829,1.472,1.071,0.462,0.811,0.765,-,-,��
2018/09/13,12:30,0.788,1.179,0.831,1.470,1.071,0.464,0.810,0.766,-,-,��
2018/09/13,12:40,0.786,1.181,0.832,1.472,1.073,0.463,0.810,0.764,-,-,��
2018/09/13,12:50,0.789,1.186,0.831,1.472,1.069,0.463,0.810,0.768,�쓌,3.0,��
2018/09/13,13:00,0.790,1.182,0.831,1.470,1.070,0.462,0.811,0.766,�쓌,2.9,��
2018/09/13,13:10,0.790,1.182,0.832,1.471,1.071,0.465,0.810,0.768,�쓌,3.4,��
2018/09/13,13:20,0.790,1.185,0.832,1.472,1.069,0.464,0.812,0.767,�쓌,4.2,��
2018/09/13,13:30,0.790,1.183,0.830,1.470,1.072,0.463,0.810,0.767,�쓌,3.5,��
2018/09/13,13:40,0.789,1.182,0.832,1.472,1.071,0.464,0.810,0.766,�쓌,4.1,��
2018/09/13,13:50,0.790,1.185,0.834,1.474,1.069,0.464,0.811,0.764,��쓌,3.7,��
2018/09/13,14:00,0.791,1.184,0.833,1.473,1.073,0.463,0.811,0.765,�쓌,3.8,��
2018/09/13,14:10,0.788,1.184,0.832,1.473,1.073,0.463,0.811,0.765,�쓌,4.3,��
2018/09/13,14:20,0.790,1.183,0.832,1.472,1.070,0.462,0.809,0.765,��쓌,4.2,��
2018/09/13,14:30,0.789,1.183,0.833,1.473,1.072,0.464,0.810,0.767,��쓌,5.4,��
2018/09/13,14:40,0.790,1.183,0.833,1.473,1.073,0.464,0.811,0.768,��쓌,4.8,��
2018/09/13,14:50,0.791,1.184,0.834,1.475,1.070,0.465,0.811,0.766,��쓌,4.5,��
2018/09/13,15:00,0.790,1.184,0.833,1.475,1.073,0.465,0.809,0.766,��쓌,4.5,��
2018/09/13,15:10,0.791,1.187,0.833,1.473,1.072,0.465,0.810,0.766,��쓌,3.8,��
2018/09/13,15:20,0.791,1.185,0.834,1.472,1.072,0.465,0.810,0.765,��쓌,3.5,��
2018/09/13,15:30,0.789,1.187,0.835,1.474,1.072,0.465,0.810,0.769,��쓌,4.5,��
2018/09/13,15:40,0.791,1.189,0.833,1.472,1.072,0.465,0.810,0.767,��,4.9,��
2018/09/13,15:50,0.790,1.187,0.833,1.473,1.071,0.464,0.812,0.767,��,4.2,��
2018/09/13,16:00,0.791,1.188,0.834,1.470,1.071,0.464,0.811,0.766,��,5.2,��
2018/09/13,16:10,0.788,1.188,0.833,1.476,1.073,0.465,0.810,0.766,��쓌,5.3,��
2018/09/13,16:20,0.788,1.190,0.832,1.477,1.071,0.466,0.812,0.766,��,5.8,��
2018/09/13,16:30,0.791,1.190,0.833,1.477,1.072,0.464,0.809,0.766,��,6.0,��
2018/09/13,16:40,0.790,1.191,0.835,1.478,1.074,0.466,0.813,0.767,��,6.9,��
2018/09/13,16:50,0.789,1.191,0.836,1.476,1.072,0.465,0.810,0.768,��,7.4,��
2018/09/13,17:00,0.790,1.192,0.836,1.479,1.071,0.466,0.810,0.766,��,6.5,��
2018/09/13,17:10,0.790,1.192,0.836,1.478,1.073,0.464,0.810,0.768,��,6.1,��
2018/09/13,17:20,0.791,1.193,0.835,1.477,1.074,0.465,0.810,0.767,��,5.4,��
2018/09/13,17:30,0.791,1.195,0.835,1.475,1.072,0.466,0.811,0.768,��,6.6,��
2018/09/13,17:40,0.791,1.192,0.836,1.476,1.072,0.467,0.810,0.768,��,6.3,��
2018/09/13,17:50,0.791,1.192,0.838,1.479,1.074,0.467,0.812,0.769,��,6.5,��
2018/09/13,18:00,0.790,1.192,0.836,1.478,1.073,0.466,0.812,0.769,��,7.3,��
2018/09/13,18:10,0.790,1.191,0.839,1.478,1.074,0.466,0.810,0.768,��,7.1,��
2018/09/13,18:20,0.791,1.191,0.838,1.477,1.076,0.467,0.811,0.768,��,6.2,��
2018/09/13,18:30,0.792,1.195,0.838,1.477,1.074,0.467,0.812,0.769,��쐼,6.1,��
2018/09/13,18:40,0.792,1.194,0.838,1.477,1.074,0.467,0.811,0.767,��,5.7,��
2018/09/13,18:50,0.789,1.196,0.838,1.477,1.075,0.467,0.813,0.770,��,5.8,��
2018/09/13,19:00,0.792,1.192,0.838,1.478,1.075,0.467,0.812,0.770,��,6.0,��
2018/09/13,19:10,0.793,1.195,0.837,1.480,1.075,0.466,0.811,0.769,��,6.0,��
2018/09/13,19:20,0.792,1.195,0.836,1.479,1.076,0.467,0.815,0.770,��,6.7,��
2018/09/13,19:30,0.793,1.187,0.839,1.479,1.075,0.467,0.811,0.768,��,7.4,��
2018/09/13,19:40,0.792,1.176,0.837,1.476,1.074,0.467,0.813,0.769,��,7.2,��
2018/09/13,19:50,0.791,1.183,0.838,1.479,1.077,0.467,0.810,0.771,��,6.4,��
2018/09/13,20:00,0.794,1.195,0.838,1.479,1.078,0.467,0.811,0.770,��,6.2,��
2018/09/13,20:10,0.793,1.196,0.836,1.478,1.075,0.467,0.811,0.769,��,4.6,��
2018/09/13,20:20,0.792,1.195,0.838,1.478,1.077,0.467,0.813,0.769,��,3.0,��
2018/09/13,20:30,0.793,1.194,0.837,1.479,1.073,0.466,0.810,0.771,��,3.7,��
2018/09/13,20:40,0.792,1.193,0.837,1.480,1.077,0.466,0.812,0.770,��쐼,3.1,��
2018/09/13,20:50,0.791,1.196,0.837,1.478,1.078,0.466,0.812,0.769,��쐼,3.2,��
2018/09/13,21:00,0.793,1.196,0.838,1.477,1.079,0.467,0.811,0.769,��쐼,3.5,��
2018/09/13,21:10,0.795,1.195,0.838,1.479,1.076,0.467,0.813,0.768,��쐼,3.8,��
2018/09/13,21:20,0.794,1.196,0.837,1.475,1.075,0.466,0.813,0.770,��쐼,4.1,��
2018/09/13,21:30,0.793,1.192,0.838,1.475,1.077,0.467,0.810,0.766,��,4.0,��
2018/09/13,21:40,0.793,1.190,0.838,1.478,1.076,0.470,0.814,0.768,��,3.8,��
2018/09/13,21:50,0.795,1.194,0.838,1.480,1.075,0.468,0.812,0.770,��,4.1,��
2018/09/13,22:00,0.793,1.194,0.837,1.477,1.076,0.466,0.812,0.769,��,3.8,��
2018/09/13,22:10,0.793,1.193,0.837,1.478,1.077,0.467,0.811,0.768,��,3.9,��
2018/09/13,22:20,0.795,1.197,0.836,1.480,1.078,0.467,0.811,0.768,��쐼,3.5,��
2018/09/13,22:30,0.796,1.193,0.835,1.479,1.074,0.467,0.811,0.769,��쐼,4.0,��
2018/09/13,22:40,0.794,1.193,0.837,1.481,1.077,0.466,0.811,0.770,��쐼,4.3,��
2018/09/13,22:50,0.794,1.193,0.836,1.480,1.075,0.465,0.811,0.769,��쐼,5.0,��
2018/09/13,23:00,0.794,1.192,0.837,1.479,1.075,0.468,0.812,0.770,��쐼,5.3,��
2018/09/13,23:10,0.794,1.193,0.838,1.478,1.075,0.467,0.813,0.770,��쐼,5.0,��
2018/09/13,23:20,0.792,1.191,0.837,1.479,1.074,0.467,0.813,0.769,��쐼,4.1,��
2018/09/13,23:30,0.796,1.190,0.838,1.481,1.074,0.466,0.811,0.768,��,3.9,��
2018/09/13,23:40,0.794,1.193,0.836,1.479,1.078,0.467,0.811,0.769,��,3.9,��
2018/09/13,23:50,0.793,1.192,0.840,1.480,1.076,0.468,0.811,0.769,��쐼,4.2,��
